Home > Weather > Itabuna > Past weeks

Flag for Brazil Past Weather in Itabuna, Bahia, Brazil — Yesterday and Last 2 Weeks

Now
79 °F

Scattered clouds.


Feels Like: 80 °F
Forecast: 62 / 78 °F
Wind: 16 mph from South

Location: Salvador Aeroporto

Current Time: Aug 25, 2016 at 3:52:53 PM

Latest Report: Aug 25, 2016 at 3:00 PM


Visibility: N/A

Pressure: 30.07 "Hg

Humidity: 58%

Dew Point: 63 °F

Location of ItabunaLocation

Past Weather in Itabuna — Graph

°F

Itabuna Temperature Yesterday

Maximum temperature yesterday: 79 °F (at 9:00 AM)
Minimum temperature yesterday: 72 °F (at 1:00 PM)
Average temperature yesterday: 74 °F

High & Low Weather Summary for the Past Weeks

 TemperatureHumidityPressure
High84 °F (Aug 16, 11:00 AM)94% (Aug 11, 6:00 AM)30.15 "Hg (Aug 11, 6:00 AM)
Low66 °F (Aug 15, 6:00 AM)42% (Aug 12, 1:00 PM)29.92 "Hg (Aug 16, 3:00 PM)
Average77 °F73%30.04 "Hg
* Reported Aug 10 3:00 PM — Aug 25 3:00 PM, Itabuna, Weather by CustomWeather, © 2016

Note: Actual official high and low records may vary slightly from our data, if they occured in-between our weather recording intervals... More about our weather records

Advertising

Itabuna Weather History for the Previous 24 Hours

Scroll right to see more
 ConditionsComfort  
Time TempWeatherWind HumidityBarometerVisibility
3:00 PM
Thu, Aug 25
79 °FScattered clouds.16 mph58%30.07 "HgN/A
2:00 PM79 °FBroken clouds.18 mph61%30.07 "HgN/A
1:00 PM81 °FBroken clouds.14 mph58%30.09 "HgN/A
12:00 PM79 °FBroken clouds.16 mph58%30.12 "HgN/A
11:00 AM81 °FBroken clouds.15 mph58%30.12 "HgN/A
10:00 AM81 °FBroken clouds.17 mph58%30.15 "HgN/A
9:00 AM79 °FBroken clouds.15 mph61%30.15 "HgN/A
8:00 AM77 °FBroken clouds.15 mph61%30.12 "HgN/A
7:00 AM77 °FPartly sunny.16 mph65%30.12 "HgN/A
6:00 AM75 °FPartly sunny.15 mph69%30.09 "HgN/A
5:00 AM75 °FMostly cloudy.20 mph74%30.09 "HgN/A
4:00 AM75 °FPartly cloudy.20 mph74%30.07 "HgN/A
3:00 AM75 °FPassing clouds.17 mph83%30.07 "Hg5 mi
2:00 AM77 °FPassing clouds.15 mph74%30.07 "HgN/A
1:00 AM75 °FPartly cloudy.14 mph74%30.09 "HgN/A
12:00 AM75 °FPassing clouds.14 mph78%30.09 "Hg5 mi
11:00 PM
Wed, Aug 24
73 °FLight rain. Overcast.12 mph89%30.12 "Hg4 mi
10:00 PM72 °FHeavy rain. Fog.18 mph94%N/A2 mi
9:00 PM72 °FRain. Fog.14 mph94%N/A2 mi
8:00 PM73 °FLight rain. Partly cloudy.14 mph89%30.12 "Hg6 mi
7:00 PM72 °FLight rain. Passing clouds.15 mph94%30.09 "Hg5 mi
6:00 PM72 °FLight rain. Fog.12 mph94%N/A3 mi
5:00 PM73 °FScattered showers. Broken clouds.8 mph89%30.09 "Hg5 mi
4:00 PM72 °FRain. Fog.14 mph94%30.09 "Hg1 mi
3:00 PM72 °FHeavy rain. Fog.14 mph94%30.09 "Hg1 mi
Weather by CustomWeather, © 2016

See weather overviewHow to use our weather pages